#timestamp,LO_Frequency,Hit,StdDev 
1689760815.5,286047003.1,N
1689760835.3,286047003.4,N
1689760855.2,286047003.9,N
1689760875.9,286047002.7,N
1689760895.7,286047001.9,N
1689760915.6,286047004.2,N
1689760935.4,286047001.5,N
1689760955.2,286047001.6,N
1689760975.1,286047001.5,N
1689760976.0,286047001.5,N
1689760995.8,286047004.1,N
1689761015.7,286047003.5,N
1689761035.5,286047004.3,N
1689761055.3,286047002.2,N
1689761075.2,286047002.3,N
1689761095.0,286047001.9,N
1689761095.9,286047001.9,N
1689761115.7,286047001.6,N
1689761135.6,286047000.1,N
1689761155.4,286047002.3,N
1689761175.3,286047003.8,N
1689761195.1,286047002.2,N
1689761196.0,286047002.2,N
1689761215.8,286047002.8,N
1689761235.7,286047001.0,N
1689761255.5,286046998.4,N
1689761275.3,286046998.8,N
1689761295.2,286046997.0,N
1689761315.0,286046997.0,N
1689761315.9,286046997.0,N
1689761335.8,286046996.5,N
1689761355.6,286046998.3,N
1689761375.4,286046999.3,N
1689761395.3,286046998.4,N
1689761415.1,286046998.8,N
1689761435.8,286046999.1,N
1689761455.7,286047000.2,N
1689761475.5,286047001.0,N
1689761495.4,286047001.2,N
1689761515.2,286047001.1,N
1689761535.0,286046998.3,N
1689761535.9,286046998.3,N
1689761555.8,286046998.5,N
1689761575.6,286046999.6,N
1689761595.4,286046996.6,N
1689761615.3,286046997.8,N
1689761635.1,286046997.5,N
1689761655.9,286046998.0,N
1689761675.7,286046997.5,N
1689761695.5,286046999.2,N
1689761715.4,286046998.2,N
1689761735.2,286047001.1,N
1689761755.0,286047000.3,N
1689761756.0,286047000.3,N
1689761775.8,286047002.4,N
1689761795.6,286047002.2,N
1689761815.5,286047002.5,N
1689761835.3,286047000.4,N
1689761855.1,286046998.5,N
1689761875.9,286047002.3,N
1689761895.7,286046998.1,N
1689761915.5,286046998.5,N
1689761935.4,286047000.4,N
1689761955.2,286047000.6,N
1689761975.1,286047001.2,N
1689761976.0,286047001.2,N
1689761995.8,286046998.8,N
1689762015.6,286046998.8,N
1689762035.5,286046998.2,N
1689762055.3,286047000.5,N
1689762075.1,286047002.5,N
1689762095.9,286047000.8,N
1689762115.7,286047002.1,N
1689762135.6,286047001.8,N
1689762155.4,286047002.1,N
1689762175.2,286047004.1,N
1689762195.1,286047004.4,N
1689762196.0,286047004.4,N
1689762215.8,286047001.7,N
1689762235.7,286046999.7,N
1689762255.5,286046999.9,N
1689762275.3,286047001.1,N
1689762295.2,286047000.1,N
1689762315.9,286047000.2,N
1689762335.7,286047000.4,N
1689762355.6,286046999.4,N
1689762375.4,286046999.2,N
1689762395.3,286046999.5,N
1689762415.1,286046997.3,N
1689762416.0,286046997.3,N
1689762435.8,286046997.3,N
1689762455.7,286047002.7,N
1689762475.5,286047002.0,N
1689762495.3,286047001.6,N
1689762515.2,286047002.1,N
1689762535.0,286047000.0,N
1689762535.9,286047000.0,N
1689762555.8,286046999.0,N
1689762575.6,286047000.4,N
1689762595.4,286046999.0,N
1689762615.3,286046996.8,N
1689762635.1,286046998.8,N
1689762655.8,286047000.8,N
1689762675.7,286046999.4,N
1689762695.5,286046997.7,N
1689762715.4,286046997.3,N
1689762735.2,286046994.9,N
1689762755.0,286046997.5,N
1689762755.9,286046997.5,N
1689762775.8,286046997.0,N
1689762795.6,286046998.0,N
1689762815.4,286046995.4,N
1689762835.3,286046995.3,N
1689762855.1,286046995.8,N
1689762875.9,286046997.9,N
1689762895.7,286046997.5,N
1689762915.5,286046997.3,N
1689762935.4,286046997.4,N
1689762955.2,286046997.6,N
1689762975.0,286046997.5,N
1689762975.9,286046997.5,N
1689762995.8,286046996.9,N
1689763015.6,286046999.1,N
1689763035.5,286046997.4,N
1689763055.3,286046997.8,N
1689763075.1,286046997.1,N
1689763095.9,286046997.8,N
1689763115.7,286046997.4,N
1689763135.6,286046995.4,Y
1689763155.4,286046999.0,P
1689763175.2,286047000.7,N
1689763195.1,286047000.8,N
1689763196.0,286047000.8,N
1689763215.8,286046998.5,N
1689763235.6,286047001.2,N
1689763255.5,286046998.8,N
1689763275.3,286046998.5,N
1689763295.2,286047000.3,N
1689763315.9,286046998.3,N
1689763335.7,286046998.1,N
1689763355.6,286046999.4,N
1689763375.4,286046998.7,N
1689763395.2,286047001.2,N
1689763415.1,286046998.1,N
1689763416.0,286046998.1,N
1689763435.8,286046998.7,N
1689763455.7,286046999.5,N
1689763475.5,286046999.4,N
1689763495.3,286046998.2,N
1689763515.2,286047002.2,N
1689763535.9,286046999.7,N
1689763555.7,286047002.8,N
1689763575.6,286047000.3,N
1689763595.4,286047000.2,N
1689763615.3,286047011.9,Y
1689763635.1,286047000.2,P
1689763636.0,286047000.2,N
1689763655.8,286047004.3,P
1689763675.7,286047002.3,N
1689763695.5,286046999.7,N
1689763715.3,286046998.2,N
1689763735.2,286046999.8,N
1689763755.0,286047002.6,N
1689763755.9,286047002.6,N
1689763775.8,286047002.2,N
1689763795.6,286047002.0,N
1689763815.4,286047002.5,N
1689763835.3,286047002.7,N
1689763855.1,286047000.2,N
1689763875.8,286047002.4,N
1689763895.7,286047001.9,N
1689763915.5,286047002.4,N
1689763935.4,286047001.4,N
1689763955.2,286046999.7,N
1689763975.0,286047001.6,N
1689763975.9,286047001.6,N
1689763995.8,286047002.3,N
1689764015.6,286047001.5,N
1689764035.4,286047001.9,N
1689764055.3,286047001.3,N
1689764075.1,286047002.0,N
1689764095.9,286047002.2,N
1689764115.7,286047000.1,N
1689764135.5,286047003.8,N
1689764155.4,286047004.4,Y
1689764175.2,286047001.2,P
1689764195.0,286047000.8,P
1689764196.0,286047000.8,N
1689764215.8,286046998.3,Y
1689764235.6,286047001.0,P
1689764255.5,286046999.2,P
1689764275.3,286046997.7,N
1689764295.1,286046999.1,N
1689764315.9,286046996.9,N
1689764335.7,286046997.2,N
1689764355.6,286046995.6,N
1689764375.4,286046995.5,N
1689764395.2,286046997.9,N
